Theta_e
349 349 350 350 350 352 350 351 349 348 347 343 340 349 354 350 344 345 348 346 343 345 348 354 353 352 350 353 352 350 349 350 350 349 351 348 346 352 354 353 350 353 350
350 351 349 349 350 350 351 351 349 349 348 340 343 343 344 345 355 351 350 350 347 350 353 354 353 353 353 351 353 352 350 348 347 347 346 348 349 349 350 354 353 352 351
351 350 351 350 351 351 349 349 349 350 345 352 352 351 355 355 354 354 354 351 354 356 355 353 349 349 348 348 350 352 350 341 342 344 346 348 350 350 346 350 352 351 351
349 349 349 350 349 349 348 350 351 349 347 351 353 356 354 352 353 353 351 350 350 349 350 350 349 351 351 352 351 351 349 346 347 344 347 344 343 348 348 348 346 348 350
354 353 352 352 351 352 352 352 352 354 355 356 357 356 354 354 353 351 351 353 350 351 354 351 348 348 347 349 349 351 350 350 347 345 344 340 340 346 344 344 342 350 346
355 355 356 358 357 357 356 354 356 358 358 357 356 355 355 354 350 350 349 350 352 350 351 350 351 349 349 348 348 347 344 345 344 346 344 343 341 340 342 343 343 341 346
357 358 359 359 357 356 354 355 357 356 358 355 354 352 347 344 343 343 346 351 352 351 349 348 349 351 348 347 348 347 345 345 346 339 342 347 344 342 343 343 337 337 338
359 360 359 356 353 356 359 354 355 356 355 350 346 343 338 333 329 329 334 338 347 346 348 348 347 347 347 345 345 346 347 346 346 343 343 344 346 345 346 346 343 341 341
361 361 359 359 358 353 349 343 343 339 335 332 327 327 324 324 324 325 329 341 340 339 330 334 343 343 341 340 341 343 343 343 343 341 340 340 340 340 340 341 344 345 344
359 361 357 352 345 338 332 330 325 325 334 336 334 329 327 325 324 325 329 336 341 342 336 334 333 334 334 334 336 338 338 339 339 337 337 340 339 338 338 339 339 339 340
352 350 342 330 327 325 326 327 335 337 335 334 334 324 321 320 320 319 321 333 333 333 333 332 322 323 323 325 327 329 330 328 333 336 336 336 336 337 337 336 335 335 337
343 328 324 323 336 329 324 327 329 327 327 333 334 333 330 321 320 321 322 323 333 333 332 331 325 325 326 326 326 326 327 332 333 333 334 335 333 332 331 330 330 332 332
325 323 326 333 333 328 326 324 331 333 333 333 332 331 330 330 325 321 322 324 326 331 328 325 325 325 327 329 324 325 328 328 328 329 329 329 328 328 327 328 327 325 326
323 330 332 330 332 327 332 333 332 331 331 331 331 329 326 323 323 327 329 330 326 331 330 328 325 325 323 321 319 318 318 316 316 316 316 316 316 316 316 317 316 317 317
331 336 336 334 334 334 332 331 332 330 330 328 325 323 320 316 308 310 314 320 320 317 323 322 320 319 318 317 317 316 316 315 315 315 315 315 315 315 315 315 315 316 317
337 336 335 335 334 333 331 330 328 328 323 318 319 316 314 308 308 308 307 307 308 316 318 318 318 318 318 318 317 317 317 316 315 315 314 314 314 314 313 313 314 314 314
337 336 334 334 333 331 330 324 321 317 311 309 309 309 309 308 308 308 309 310 316 318 318 318 318 318 318 318 318 318 317 317 316 315 314 313 313 313 312 312 313 313 313
337 335 334 333 332 331 329 325 321 317 315 311 310 310 310 309 309 311 317 319 320 319 319 319 319 319 319 319 319 318 318 318 317 315 314 313 312 312 311 311 311 311 311
336 333 333 332 331 330 329 327 324 323 321 319 315 311 310 310 316 317 316 320 319 319 319 319 319 319 318 318 318 318 318 318 317 316 314 313 312 311 310 310 310 310 309
333 331 331 330 330 330 329 326 325 324 322 321 321 322 321 319 321 321 320 319 318 318 318 319 319 319 319 318 318 318 317 317 316 316 314 312 311 310 310 309 309 309 309
329 327 327 329 329 329 327 326 324 323 321 320 321 320 319 318 319 318 317 317 317 317 316 316 317 317 317 317 317 316 316 316 315 315 314 312 311 310 308 308 309 309 308
328 326 328 329 328 328 326 326 323 321 320 319 319 317 308 315 317 316 316 315 315 314 314 314 314 313 313 314 315 316 315 315 315 313 311 310 309 308 307 308 308 307 307
328 328 328 328 328 327 327 325 321 320 318 317 317 317 315 316 315 315 314 314 314 314 313 313 312 312 312 312 312 313 314 314 312 310 308 307 307 307 307 306 306 306 306
327 327 326 326 326 325 323 320 319 319 319 317 316 315 315 315 315 316 315 315 314 314 313 312 311 312 312 313 312 312 312 311 310 307 304 304 306 306 305 305 306 307 308
326 325 324 325 324 320 319 319 319 318 318 317 316 316 316 316 316 316 315 315 315 314 313 311 311 311 311 311 312 312 307 303 302 303 302 300 301 304 305 306 307 308 308
323 322 321 320 319 319 319 319 319 319 318 318 318 317 317 316 316 316 316 316 316 315 313 310 310 310 310 310 309 308 303 303 301 300 300 300 302 304 306 307 307 307 308
Wind_Speed
21 20 20 18 18 18 17 17 16 15 15 16 14 13 14 16 16 18 18 17 17 16 13 15 17 16 18 14 15 11 11 14 17 17 16 17 21 11 6 8 12 16 16
20 20 20 20 19 19 18 16 16 15 15 16 14 14 16 17 18 20 19 16 18 17 16 17 17 18 17 17 13 13 17 17 19 20 18 19 12 15 17 15 12 13 16
18 18 18 18 17 17 17 16 14 14 13 11 13 15 15 17 17 17 16 16 17 18 15 15 14 16 14 15 13 14 12 16 18 19 19 16 15 18 21 18 17 17 17
16 15 15 16 15 13 13 13 12 13 13 14 14 14 14 14 13 15 16 17 17 15 15 15 14 12 13 13 15 13 14 15 12 15 16 17 20 21 22 18 21 20 20
16 15 14 13 13 12 12 12 10 10 10 11 12 12 11 11 15 13 12 12 12 12 12 13 13 15 15 14 12 12 13 10 11 16 21 21 21 24 23 19 18 24 15
15 16 14 14 13 11 11 10 8 10 12 12 9 8 7 8 11 10 11 10 9 8 9 9 11 13 13 12 17 17 17 18 18 16 15 12 8 16 21 17 16 30 14
14 14 15 12 11 12 12 10 8 7 6 8 8 7 10 9 8 7 7 6 7 7 6 7 6 6 8 6 7 9 11 16 18 17 15 8 11 9 11 13 14 14 19
15 14 14 15 12 11 10 8 7 8 7 7 5 5 8 8 8 7 6 7 5 6 6 5 5 5 4 5 5 5 7 8 8 9 11 12 13 13 15 16 19 23 25
16 15 13 13 12 11 9 7 7 7 6 5 5 3 5 4 3 1 4 4 4 3 6 6 6 6 7 7 7 7 7 6 3 3 5 7 8 10 10 11 11 12 17
16 15 14 12 10 9 8 7 6 4 5 4 3 1 3 3 3 1 6 3 4 3 8 4 3 5 7 6 6 6 3 7 8 9 8 8 8 9 10 10 11 13 12
16 14 13 11 10 8 8 7 9 9 7 5 4 3 4 4 5 6 5 7 6 4 4 4 5 4 3 3 3 4 5 5 5 8 7 6 5 2 3 7 11 14 12
17 14 12 9 9 9 10 10 9 7 7 7 7 6 4 6 7 8 9 11 12 8 6 5 8 8 9 7 7 8 6 8 5 4 4 5 5 8 12 12 11 9 11
15 13 12 13 11 11 10 10 10 10 7 6 5 4 4 5 7 8 7 7 7 8 6 5 6 8 10 11 10 8 9 7 7 6 7 8 9 9 13 11 13 15 11
15 15 15 14 14 13 11 10 8 6 6 6 5 4 3 3 3 4 6 9 9 8 8 11 10 8 9 9 9 9 9 10 8 7 7 8 9 9 10 12 13 13 15
17 16 16 15 14 15 15 14 8 11 10 8 6 6 5 3 4 4 3 3 3 5 7 3 3 3 4 6 7 8 8 8 8 8 8 8 9 10 10 12 12 13 14
18 18 16 16 15 12 14 16 10 13 11 9 10 8 8 5 5 4 4 4 6 8 6 3 4 4 5 5 6 6 7 9 9 10 10 11 11 12 14 14 13 13 15
19 18 18 17 15 14 12 12 15 12 9 8 8 7 6 6 6 7 9 11 10 9 4 4 3 4 4 5 6 6 7 8 8 9 10 11 12 12 14 14 15 15 16
18 19 17 16 15 15 13 12 11 11 10 10 8 6 6 5 6 7 10 10 7 5 4 4 4 5 5 6 7 7 8 9 9 11 11 12 13 14 15 16 16 18 19
20 19 16 15 15 15 15 15 12 10 8 7 5 4 4 4 6 7 5 7 2 3 4 5 6 6 7 7 8 9 10 10 12 9 11 13 13 15 16 17 18 19 21
21 20 18 15 15 15 15 14 12 10 9 7 5 4 3 4 3 4 4 3 3 4 5 6 7 8 9 10 10 11 12 12 12 13 13 14 14 16 18 19 19 21 21
23 23 20 18 17 16 15 14 12 10 8 7 7 11 10 6 3 3 3 3 3 4 5 6 7 8 10 11 12 13 13 13 14 13 13 14 16 18 18 18 19 21 22
24 25 22 18 17 16 14 13 12 10 9 8 7 5 5 8 3 3 2 2 3 5 6 8 9 10 10 11 11 12 13 13 13 13 13 15 17 18 18 19 21 22 22
25 28 25 21 18 17 16 13 12 11 9 8 6 4 2 3 4 2 1 3 5 6 8 9 10 10 10 10 10 11 11 12 11 10 14 16 17 17 19 20 21 21 21
24 25 26 21 20 19 17 16 14 13 10 8 6 6 5 4 3 3 1 4 6 8 10 10 10 9 10 9 7 9 13 16 18 17 17 17 16 19 19 19 19 20 22
20 20 24 21 20 19 17 15 13 12 11 9 7 6 5 4 4 4 4 5 6 8 11 10 9 10 8 10 7 10 13 16 15 15 17 19 18 17 17 18 19 22 24
21 20 20 20 19 17 16 15 13 12 11 9 8 7 6 5 6 6 7 7 8 11 11 11 11 10 10 8 14 17 18 17 16 16 16 17 15 16 17 18 20 24 27
Wind_Direction
214 215 219 222 225 232 232 239 245 250 251 250 250 242 251 265 265 263 264 259 261 256 242 246 256 243 227 234 246 252 261 264 264 266 286 294 263 202 247 237 228 224 241
216 217 220 225 222 230 234 234 240 244 247 250 248 259 266 262 257 262 265 263 254 251 254 255 252 251 249 235 232 248 249 258 270 271 262 245 269 236 228 229 216 231 234
212 216 216 223 226 227 232 241 237 238 243 241 258 268 266 263 264 266 263 268 251 253 258 268 275 269 265 251 246 245 257 274 271 272 276 276 265 258 246 234 230 231 233
203 207 214 215 222 222 227 226 229 232 248 254 261 258 264 268 272 273 270 267 267 266 265 270 264 265 270 256 249 246 258 280 280 287 278 283 278 267 266 262 248 249 231
197 202 203 204 207 209 212 222 230 241 258 263 255 257 266 272 268 267 267 272 278 271 259 266 265 263 274 261 243 248 256 265 271 274 284 284 284 266 275 261 252 263 265
196 193 201 197 198 204 220 234 235 229 235 247 257 249 232 240 268 271 265 266 279 272 267 272 278 280 287 273 248 248 253 259 269 273 292 285 308 310 274 251 280 297 335
191 181 191 197 198 201 212 205 213 215 207 213 221 254 269 274 281 278 272 274 277 273 278 285 296 295 330 343 319 298 283 267 266 265 269 293 295 300 283 280 284 283 291
170 170 178 194 190 186 186 195 191 194 202 228 242 258 277 281 281 274 270 289 288 283 278 284 293 302 317 332 322 315 305 291 285 277 270 280 280 283 278 283 279 275 273
160 172 173 177 178 182 191 194 193 217 227 227 243 271 297 304 323 27 138 68 314 331 290 283 269 276 279 293 294 320 344 326 332 314 305 300 300 301 301 300 298 285 279
158 159 173 176 186 186 191 186 195 181 141 123 103 49 306 339 348 129 139 93 101 53 17 349 297 276 282 286 280 279 309 301 302 307 310 320 327 326 307 295 287 293 298
167 181 185 187 185 182 169 150 134 150 151 130 112 84 75 64 60 68 119 118 106 99 101 8 47 40 11 340 320 310 315 329 5 5 349 340 340 346 28 356 322 307 308
179 181 180 169 146 159 159 152 152 147 127 121 113 87 60 58 62 70 85 114 106 105 94 80 63 56 50 47 53 52 61 44 35 14 18 2 311 331 287 291 294 292 292
171 170 160 161 160 149 149 137 127 119 119 128 128 121 92 45 35 55 72 92 111 93 90 79 63 48 47 13 13 26 36 24 21 14 3 353 347 333 339 336 322 329 321
171 164 165 159 148 138 128 124 132 132 153 152 148 137 123 105 108 98 16 22 30 27 29 13 40 52 46 34 34 25 25 23 27 12 359 346 342 335 337 330 330 328 325
164 157 153 154 146 143 159 148 169 166 155 157 139 150 143 130 119 136 172 169 127 124 81 41 43 47 35 34 29 28 18 25 19 8 357 348 345 339 334 327 330 325 325
160 161 162 158 154 159 154 170 174 176 184 182 170 161 177 132 117 110 103 103 113 105 72 57 40 30 25 20 16 11 2 2 0 358 351 346 340 336 329 332 324 320 317
167 169 167 164 163 157 157 149 156 151 146 140 140 137 127 117 109 103 93 91 88 71 48 39 28 14 2 359 354 349 345 338 356 343 343 339 335 332 330 326 323 323 318
171 174 168 169 169 164 162 158 154 146 142 144 139 129 117 105 95 101 90 60 40 24 19 1 350 340 336 334 331 329 325 330 328 336 338 334 334 331 330 326 324 320 318
172 170 169 175 175 172 168 164 162 160 157 155 159 138 98 68 60 54 90 52 5 331 320 318 316 312 313 315 315 319 317 318 312 323 328 325 327 327 324 321 318 318 318
170 171 168 172 177 173 172 168 170 171 172 179 190 191 252 9 325 340 14 309 323 317 309 306 305 300 301 302 304 306 309 312 310 309 313 317 320 320 320 318 317 317 317
168 168 164 169 171 175 173 175 178 177 179 184 185 207 208 196 227 252 277 297 319 313 317 313 309 305 305 303 299 302 304 305 307 306 308 308 312 314 315 314 314 314 314
163 158 160 167 167 172 178 182 179 178 183 189 199 241 216 177 227 255 268 307 308 321 317 314 316 309 305 305 304 302 302 305 306 306 306 310 312 312 314 312 313 314 313
165 159 158 165 171 173 176 185 179 182 187 190 192 195 171 179 220 215 282 314 325 328 320 319 315 315 310 304 300 303 306 303 300 302 316 310 309 311 312 313 312 314 314
171 165 153 164 169 172 174 178 182 181 185 189 191 192 197 189 198 252 258 305 322 326 327 322 316 314 311 318 319 300 271 271 277 299 304 312 313 310 310 312 314 313 313
168 170 150 162 170 167 176 179 185 185 185 190 191 198 207 208 223 246 271 290 312 326 325 322 316 305 315 311 314 275 297 304 305 309 314 315 316 313 315 312 312 312 311
164 167 160 161 165 173 178 178 184 188 192 196 204 212 222 230 245 263 277 288 303 320 325 321 312 305 300 308 270 290 309 314 318 322 323 325 322 315 311 309 310 311 314